Vertical_Velocity
2 0 4 2 -1 -16 14 -0 6 3 1 -2 -0 12 -3 5 1 12 12 46 -1 1
1 2 1 0 1 -3 -8 7 -1 3 2 6 2 9 9 -3 11 21 7 13 10 24
0 -0 -1 0 0 -0 -2 -3 -1 4 -3 2 3 4 3 7 2 3 2 9 -3 9
1 1 3 1 4 -1 -1 -2 -2 -3 -4 -5 12 -8 -6 7 2 5 9 7 13 3
1 2 1 2 3 -1 1 1 1 -0 -3 3 -3 -3 -7 -0 -2 4 -1 12 7 4
0 -2 -0 -0 -1 2 1 3 3 1 -4 -6 -1 -1 6 3 6 -3 -2 -8 -2 2
-1 0 1 -3 -2 1 -1 -1 -1 1 -0 -3 -0 -0 -1 -2 -6 -6 4 -2 2 -3
-1 -1 -1 -0 -1 -1 -2 -2 -2 -0 -2 -1 -2 -1 -1 -0 2 1 2 -5 1 4
-2 -1 -1 -1 -2 -1 -2 -2 -2 -1 -2 -3 -3 -3 -1 -2 -2 -3 -5 -3 1 3
-0 -0 -1 -1 -1 -2 -3 -3 0 -0 -1 -1 -1 -2 -4 -4 -2 2 1 2 4 3
-2 -2 -1 -0 0 -0 -1 -2 -2 -1 -1 -1 -1 -1 -2 -4 -1 -2 -3 2 -4 3
-2 -2 -2 -1 -1 -0 -1 0 -0 -0 -1 -0 -4 -3 -2 -5 -2 -1 -2 -3 1 -1
0 -1 -1 -1 -1 -0 -0 -1 -0 -0 -0 2 1 1 0 -1 -1 -2 -1 1 -1 -6
-1 -0 -2 -1 1 0 1 -1 2 -1 0 1 3 -4 -2 -0 -2 -2 -4 -3 -1 2
Height
2968 2973 2978 2985 2991 2998 2997 3005 3005 3010 3014 3018 3020 3023 3029 3033 3036 3039 3046 3049 3059 3060
2961 2965 2968 2973 2979 2986 2992 2993 2997 2999 3004 3007 3010 3014 3019 3022 3027 3029 3036 3041 3043 3048
2956 2960 2964 2967 2971 2975 2980 2985 2989 2992 2995 2998 3003 3004 3007 3012 3017 3020 3025 3028 3033 3037
2952 2955 2958 2961 2965 2968 2971 2975 2980 2984 2987 2991 2992 2997 3000 3004 3006 3010 3012 3016 3019 3025
2949 2950 2952 2955 2958 2962 2965 2968 2971 2974 2979 2981 2984 2988 2992 2994 2998 2999 3001 3006 3008 3014
2946 2947 2949 2950 2952 2954 2957 2960 2964 2966 2969 2972 2975 2978 2981 2984 2987 2990 2996 2997 3001 3004
2944 2945 2946 2948 2950 2951 2952 2954 2956 2959 2961 2964 2967 2970 2972 2974 2976 2981 2984 2987 2991 2995
2942 2943 2945 2946 2947 2948 2949 2951 2953 2954 2955 2958 2960 2962 2964 2966 2969 2972 2973 2976 2981 2984
2937 2938 2940 2941 2943 2944 2946 2947 2949 2950 2952 2953 2955 2955 2956 2956 2959 2962 2965 2969 2972 2974
2933 2934 2935 2936 2937 2939 2939 2941 2943 2944 2946 2948 2949 2951 2952 2952 2954 2955 2958 2961 2962 2965
2930 2930 2931 2931 2931 2932 2933 2934 2935 2938 2940 2940 2942 2943 2944 2944 2949 2950 2951 2953 2954 2957
2926 2927 2926 2926 2926 2926 2927 2927 2927 2929 2931 2934 2935 2935 2936 2934 2937 2941 2944 2946 2948 2948
2923 2922 2921 2921 2921 2921 2920 2920 2920 2921 2922 2923 2926 2927 2928 2928 2927 2930 2932 2935 2938 2942
2921 2920 2918 2917 2916 2916 2915 2915 2915 2914 2913 2914 2915 2916 2917 2919 2918 2919 2922 2924 2927 2930